This is the latest recevied weather packets stored in our database for station/object WX1NWA. If no packets are shown the sender has not sent any weather packets the latest 10 day(s).
| Time | Temp. | Humidity | Pressure | Rain* | Wind** | Luminosity | Snow |
|---|---|---|---|---|---|---|---|
| 1777653169 | 15.56° C | 60% | 1021.3 hPa | 0 mm | - | 794 W/m² | - |
| 1777652864 | 14.44° C | 61% | 1021.3 hPa | 0 mm | - | 804 W/m² | - |
| 1777652561 | 15.56° C | 60% | 1021.5 hPa | 0 mm | - | 822 W/m² | - |
| 1777652258 | 14.44° C | 60% | 1021.5 hPa | 0 mm | - | 804 W/m² | - |
| 1777651955 | 13.89° C | 64% | 1021.2 hPa | 0 mm | - | 794 W/m² | - |
| 1777651651 | 14.44° C | 61% | 1021.3 hPa | 0 mm | - | 771 W/m² | - |
| 1777651349 | 13.89° C | 62% | 1021.4 hPa | 0 mm | - | 763 W/m² | - |
| 1777651046 | 14.44° C | 62% | 1021.2 hPa | 0 mm | - | 787 W/m² | - |
| 1777650743 | 14.44° C | 62% | 1021.4 hPa | 0 mm | - | 792 W/m² | - |
| 1777650440 | 14.44° C | 60% | 1021.4 hPa | 0 mm | - | 761 W/m² | - |
| 1777650137 | 13.89° C | 65% | 1021.7 hPa | 0 mm | - | 742 W/m² | - |
| 1777649834 | 12.78° C | 68% | 1021.4 hPa | 0 mm | - | 734 W/m² | - |
| 1777649531 | 13.89° C | 67% | 1021.5 hPa | 0 mm | - | 740 W/m² | - |
| 1777649227 | 12.78° C | 63% | 1021.5 hPa | 0 mm | - | 725 W/m² | - |
| 1777648924 | 12.22° C | 68% | 1021.5 hPa | 0 mm | - | 707 W/m² | - |
| 1777648622 | 12.22° C | 65% | 1021.7 hPa | 0 mm | - | 698 W/m² | - |
| 1777648318 | 12.22° C | 68% | 1021.6 hPa | 0 mm | - | 701 W/m² | - |
| 1777648014 | 11.67° C | 73% | 1021.5 hPa | 0 mm | - | 697 W/m² | - |
| 1777647711 | 11.11° C | 78% | 1021.8 hPa | 0 mm | - | 668 W/m² | - |
| 1777647407 | 10.56° C | 78% | 1021.6 hPa | 0 mm | - | 649 W/m² | - |
| 1777647105 | 10.56° C | 79% | 1021.4 hPa | 0 mm | - | 636 W/m² | - |
| 1777646801 | 10.56° C | 79% | 1021.5 hPa | 0 mm | - | 602 W/m² | - |
| 1777646496 | 10.56° C | 79% | 1021.3 hPa | 0 mm | - | 632 W/m² | - |
| 1777646192 | 10.56° C | 81% | 1021.3 hPa | 0 mm | - | 583 W/m² | - |
| 1777645890 | 10.56° C | 80% | 1021.5 hPa | 0 mm | - | 590 W/m² | - |
* Rain latest hour (hover to see other rain measurements)
** Current wind speed in m/s (hover to see current wind gust speed)